Regional & State Weather Roundups


711 
ASUS41 KCLE 151910
RWRCLE
OHIO REGIONAL WEATHER ROUNDUP
NATIONAL WEATHER SERVICE WILMINGTON, OH
300 PM EDT SUN JUL 15 2018
NOTE: "FAIR" INDICATES FEW OR NO CLOUDS BELOW 12,000 FEET WITH NO
SIGNIFICANT WEATHER AND/OR OBSTRUCTIONS TO VISIBILITY.
OHZ001>008-015>018-024>027-034-035-043-044-152000-
   NORTHWEST OHIO
  
CITY           SKY/WX    TMP DP  RH WIND       PRES   REMARKS
DEFIANCE       FAIR      91  68  46 S8        29.98F HX  95           
FINDLAY        FAIR      92  67  43 SW6       29.99F HX  95           
TOLEDO EXPRESS FAIR      93  68  43 SW6       29.98F HX  97           
TOLEDO EXEC    PTSUNNY   91  70  49 E3        29.98F HX  96           
LIMA           CLOUDY    84  71  65 SW9       30.02S                  
$$
 
OHZ009>014-019>023-028>033-038-089-152000-
   NORTHEAST OHIO
  
CITY           SKY/WX    TMP DP  RH WIND       PRES   REMARKS
CLE-HOPKINS    FAIR      89  69  51 N10       30.01F HX  93           
CLE-LAKEFRONT  FAIR      84  72  67 NE12      29.98F                  
CUY CO. ARPT   MOSUNNY   91  70  49 NW9       30.01F HX  97           
LORAIN-ELYRIA  FAIR      88  64  44 NE6       30.00F                  
ASHTABULA      FAIR      87  69  54 N9        30.02F HX  91           
AKRON-CANTON   FAIR      89  67  47 W6        30.01F HX  92           
WOOSTER        FAIR      87  69  54 W5        30.02S HX  91           
MANSFIELD      FAIR      90  68  48 SW6       30.03F HX  94           
YOUNGSTOWN     FAIR      90  67  46 VRB3      30.01F HX  93           
$$
 
OHZ042-051>053-060>062-070>072-077>081-152000-
  SOUTHWEST OHIO
  
CITY           SKY/WX    TMP DP  RH WIND       PRES   REMARKS
CINC-COVINGTON CLOUDY    86  71  60 S9        30.03F HX  91           
CINC-LUNKEN    FAIR      84  72  67 S8        30.03S                  
HAMILTON       FAIR      86  72  62 S6        30.03F HX  92           
DAYTON         CLOUDY    86  68  54 SW7       30.04S                  
WRIGHT-PAT AFB PTSUNNY   88  67  50 S10       30.02F HX  90           
DAYTON GENERAL FAIR      88  71  57 S8        30.03S HX  94           
WILMINGTON     FAIR      83  74  74 S7        30.04S                  
$$
OHZ036-037-039>041-045>050-054>059-063>069-073>076-082>088-152000-
  CENTRAL AND SOUTHEAST OHIO
  
CITY           SKY/WX    TMP DP  RH WIND       PRES   REMARKS
COLUMBUS       CLOUDY    85  69  58 S6        30.02S                  
OSU AIRPORT    FAIR      85  72  65 SW8       30.03S HX  91           
BOLTON FIELD   SUNNY     84  72  65 SW6       30.04S                  
RICKENBACK AFB FAIR      84  71  65 SW6       30.02S                  
NEWARK         FAIR      85  73  67 SW8       30.02S HX  91           
MARION         PTSUNNY   88  68  51 VRB6      30.02S HX  91           
LANCASTER      FAIR      83  73  72 W3        30.03S                  
ZANESVILLE     FAIR      88  71  57 W8        30.02S HX  94           
NEW PHILLY     FAIR      92  67  43 W7        30.01F HX  95           
$$